User: anonymous   Login
Location: Felsheim
(48.7267°N, 10.7386°E)
Time: 00:31:42
(UTC+00:00)
Language:

Thor Agena Rocket - Orbit

View from above orbital plane
View from above orbital plane
View from above satellite
View from above satellite

Ground track
Ground track

The orbit data is extracted from the following two-line orbital elements,

1   733U 64002A   20188.54108895 -.00000007 +00000-0 +14827-4 0  9998
2   733 099.0092 080.8299 0033782 174.4260 185.7305 14.32398265941553
Epoch (UTC): 06 July 2020 12:59:10
Eccentricity: 0.0033782
inclination: 99.0092°
perigee height: 759 km
apogee height: 808 km
right ascension of ascending node: 80.8299°
argument of perigee: 174.4260°
revolutions per day: 14.32398265
mean anomaly at epoch: 185.7305°
orbit number at epoch: 94155

The dashed part of the orbit path shows where the satellite is in the earth's shadow,  

DLR